ERBS (15354 NORAD) Tracking and Keplerian Element Data

This shows tracking and keplerian element data for the satellite.

Feedback or suggestion? Click here.




ElementValue
Catalog15354
NameERBS
Epoch Orbit11141
Epoch Day359.12031709
Epoch Year2022
RAAN339.1277
Inclination56.9883
Eccentricity0.000997
Argument of Perigee63.306
Mean Anonmoly296.9042
Mean Motion16.04019362
Decay Rate0.00430016
L11 15354U 84108B 22359.12031709 .00430016 94703-4 65081-3 0 9997
L22 15354 56.9883 339.1277 0009970 63.3060 296.9042 16.04019362111416



Live tracking and technical data element details for ERBS (NORAD 15354). ERBS can be tracked NOW for your location showing map with azimuth and elevation plus other details from your city location.







IsCatalogInMostPopularTable: catalog: 15354, numindb: 463
Update: records affected: 1



GetName: 15354 ERBS

Hit Count: updated at: Fri, 19 Apr 2024 11:25:41 GMT